• In Czech Republic
  • List of Countries
  • For 7 days
  • Water Temperature
  • Satellite Maps
  • Weather Map
  • Weather Widgets
  • user-avatar
    Login

    Hourly Weather Jalalabad

    Today, 19 October, Thursday

    Time Temperature Precipitation Wind Pressure Humidity
    00:00 +24°C° 0 mm 1 mps 709 mmHg 20%
    01:00 +23°C° 0 mm 1 mps 709 mmHg 20%
    02:00 +23°C° 0 mm 1 mps 709 mmHg 20%
    03:00 +23°C° 0 mm 1 mps 709 mmHg 20%
    04:00 +22°C° 0 mm 1 mps 709 mmHg 21%
    05:00 +22°C° 0 mm 1 mps 708 mmHg 20%
    06:00 +23°C° 0 mm 1 mps 709 mmHg 19%
    07:00 +25°C° 0 mm 1 mps 710 mmHg 18%
    08:00 +27°C° 0 mm 1 mps 710 mmHg 16%
    09:00 +28°C° 0 mm 1 mps 710 mmHg 15%
    10:00 +29°C° 0 mm 1 mps 710 mmHg 13%
    11:00 +30°C° 0 mm 1 mps 710 mmHg 11%
    12:00 +31°C° 0 mm 2 mps 710 mmHg 11%
    13:00 +31°C° 0 mm 2 mps 710 mmHg 11%
    14:00 +32°C° 0 mm 2 mps 709 mmHg 11%
    15:00 +31°C° 0 mm 2 mps 709 mmHg 12%
    16:00 +31°C° 0 mm 2 mps 709 mmHg 13%
    17:00 +30°C° 0 mm 2 mps 709 mmHg 14%
    18:00 +28°C° 0 mm 1 mps 709 mmHg 17%
    19:00 +26°C° 0 mm 1 mps 709 mmHg 20%
    20:00 +23°C° 0 mm 0 mps 710 mmHg 23%
    21:00 +24°C° 0 mm 1 mps 710 mmHg 23%
    22:00 +24°C° 0 mm 1 mps 710 mmHg 23%
    23:00 +24°C° 0 mm 2 mps 710 mmHg 22%

    Tomorrow, 20 October, Friday

    Time Temperature Precipitation Wind Pressure Humidity
    00:00 +23°C° 0 mm 2 mps 710 mmHg 23%
    01:00 +21°C° 0 mm 2 mps 709 mmHg 24%
    02:00 +21°C° 0 mm 2 mps 709 mmHg 25%
    03:00 +21°C° 0 mm 2 mps 709 mmHg 26%
    04:00 +20°C° 0 mm 2 mps 709 mmHg 27%
    05:00 +20°C° 0 mm 2 mps 709 mmHg 28%
    06:00 +21°C° 0 mm 2 mps 709 mmHg 26%
    07:00 +23°C° 0 mm 2 mps 710 mmHg 24%
    08:00 +25°C° 0 mm 2 mps 711 mmHg 22%
    09:00 +26°C° 0 mm 2 mps 711 mmHg 19%
    10:00 +27°C° 0 mm 2 mps 711 mmHg 17%
    11:00 +29°C° 0 mm 2 mps 711 mmHg 14%
    12:00 +29°C° 0 mm 2 mps 710 mmHg 13%
    13:00 +30°C° 0 mm 2 mps 710 mmHg 13%
    14:00 +30°C° 0 mm 2 mps 709 mmHg 12%
    15:00 +30°C° 0 mm 2 mps 709 mmHg 13%
    16:00 +29°C° 0 mm 2 mps 709 mmHg 13%
    17:00 +29°C° 0 mm 2 mps 709 mmHg 14%
    18:00 +27°C° 0 mm 1 mps 709 mmHg 16%
    19:00 +25°C° 0 mm 1 mps 709 mmHg 18%
    20:00 +24°C° 0 mm 1 mps 709 mmHg 20%
    21:00 +23°C° 0 mm 1 mps 709 mmHg 20%
    22:00 +23°C° 0 mm 1 mps 709 mmHg 20%
    23:00 +22°C° 0 mm 1 mps 709 mmHg 21%

    Day after tomorrow, 21 October, Saturday

    Time Temperature Precipitation Wind Pressure Humidity
    00:00 +22°C° 0 mm 1 mps 708 mmHg 21%
    01:00 +21°C° 0 mm 1 mps 708 mmHg 22%
    02:00 +21°C° 0 mm 1 mps 708 mmHg 23%
    03:00 +21°C° 0 mm 1 mps 707 mmHg 23%
    04:00 +20°C° 0 mm 1 mps 707 mmHg 24%
    05:00 +20°C° 0 mm 1 mps 707 mmHg 25%
    06:00 +22°C° 0 mm 1 mps 707 mmHg 22%
    07:00 +23°C° 0 mm 1 mps 708 mmHg 20%
    08:00 +25°C° 0 mm 1 mps 708 mmHg 17%
    09:00 +26°C° 0 mm 1 mps 708 mmHg 15%
    10:00 +28°C° 0 mm 1 mps 708 mmHg 13%
    11:00 +29°C° 0 mm 1 mps 708 mmHg 11%
    12:00 +30°C° 0 mm 1 mps 708 mmHg 11%
    13:00 +30°C° 0 mm 1 mps 707 mmHg 10%
    14:00 +31°C° 0 mm 2 mps 707 mmHg 10%
    15:00 +30°C° 0 mm 1 mps 706 mmHg 11%
    16:00 +29°C° 0 mm 1 mps 706 mmHg 12%
    17:00 +29°C° 0 mm 1 mps 706 mmHg 13%
    18:00 +27°C° 0 mm 1 mps 706 mmHg 14%
    19:00 +25°C° 0 mm 1 mps 707 mmHg 16%
    20:00 +24°C° 0 mm 1 mps 707 mmHg 17%
    21:00 +23°C° 0 mm 1 mps 707 mmHg 18%
    22:00 +23°C° 0 mm 1 mps 707 mmHg 18%
    23:00 +22°C° 0 mm 1 mps 707 mmHg 18%

    22 October, Sunday

    Time Temperature Precipitation Wind Pressure Humidity
    00:00 +22°C° 0 mm 1 mps 707 mmHg 18%
    01:00 +21°C° 0 mm 2 mps 706 mmHg 19%
    02:00 +20°C° 0 mm 2 mps 706 mmHg 19%
    03:00 +20°C° 0 mm 2 mps 706 mmHg 18%
    04:00 +19°C° 0 mm 2 mps 706 mmHg 18%
    05:00 +19°C° 0 mm 2 mps 706 mmHg 18%
    06:00 +20°C° 0 mm 2 mps 706 mmHg 16%
    07:00 +21°C° 0 mm 2 mps 707 mmHg 15%
    08:00 +24°C° 0 mm 2 mps 708 mmHg 13%
    09:00 +25°C° 0 mm 2 mps 708 mmHg 12%
    10:00 +26°C° 0 mm 1 mps 708 mmHg 11%
    11:00 +28°C° 0 mm 1 mps 708 mmHg 10%
    12:00 +28°C° 0 mm 2 mps 707 mmHg 10%
    13:00 +28°C° 0 mm 2 mps 707 mmHg 10%
    14:00 +29°C° 0 mm 2 mps 706 mmHg 10%
    15:00 +28°C° 0 mm 2 mps 706 mmHg 11%
    16:00 +28°C° 0 mm 2 mps 706 mmHg 11%
    17:00 +27°C° 0 mm 1 mps 706 mmHg 12%
    18:00 +26°C° 0 mm 1 mps 707 mmHg 14%
    19:00 +24°C° 0 mm 1 mps 707 mmHg 16%
    20:00 +22°C° 0 mm 1 mps 707 mmHg 18%
    21:00 +22°C° 0 mm 1 mps 707 mmHg 18%
    22:00 +22°C° 0 mm 1 mps 707 mmHg 18%
    23:00 +20°C° 0 mm 2 mps 707 mmHg 18%

    23 October, Monday

    Time Temperature Precipitation Wind Pressure Humidity
    00:00 +20°C° 0 mm 2 mps 707 mmHg 18%
    01:00 +19°C° 0 mm 2 mps 707 mmHg 18%
    02:00 +19°C° 0 mm 2 mps 707 mmHg 18%
    03:00 +18°C° 0 mm 2 mps 707 mmHg 18%
    04:00 +18°C° 0 mm 2 mps 707 mmHg 19%
    05:00 +18°C° 0 mm 2 mps 707 mmHg 19%
    06:00 +19°C° 0 mm 2 mps 707 mmHg 17%
    07:00 +20°C° 0 mm 2 mps 708 mmHg 15%
    08:00 +21°C° 0 mm 2 mps 708 mmHg 14%
    09:00 +24°C° 0 mm 2 mps 709 mmHg 12%
    10:00 +25°C° 0 mm 2 mps 709 mmHg 11%
    11:00 +27°C° 0 mm 2 mps 709 mmHg 10%
    12:00 +27°C° 0 mm 2 mps 709 mmHg 9%
    13:00 +28°C° 0 mm 2 mps 708 mmHg 9%
    14:00 +28°C° 0 mm 2 mps 708 mmHg 9%
    15:00 +28°C° 0 mm 2 mps 708 mmHg 10%
    16:00 +27°C° 0 mm 2 mps 708 mmHg 11%
    17:00 +26°C° 0 mm 1 mps 708 mmHg 11%
    18:00 +25°C° 0 mm 1 mps 709 mmHg 13%
    19:00 +23°C° 0 mm 1 mps 709 mmHg 15%
    20:00 +22°C° 0 mm 1 mps 709 mmHg 17%
    21:00 +21°C° 0 mm 1 mps 709 mmHg 17%
    22:00 +21°C° 0 mm 1 mps 709 mmHg 17%
    23:00 +20°C° 0 mm 1 mps 710 mmHg 18%

    24 October, Tuesday

    Time Temperature Precipitation Wind Pressure Humidity
    00:00 +20°C° 0 mm 1 mps 709 mmHg 18%
    01:00 +20°C° 0 mm 1 mps 709 mmHg 17%
    02:00 +19°C° 0 mm 1 mps 709 mmHg 17%
    03:00 +18°C° 0 mm 2 mps 709 mmHg 17%
    04:00 +18°C° 0 mm 2 mps 710 mmHg 17%
    05:00 +17°C° 0 mm 2 mps 710 mmHg 17%
    06:00 +19°C° 0 mm 2 mps 710 mmHg 16%
    07:00 +20°C° 0 mm 2 mps 711 mmHg 15%
    08:00 +23°C° 0 mm 2 mps 712 mmHg 14%
    09:00 +25°C° 0 mm 2 mps 712 mmHg 12%
    10:00 +26°C° 0 mm 2 mps 712 mmHg 10%
    11:00 +28°C° 0 mm 3 mps 712 mmHg 8%
    12:00 +29°C° 0 mm 3 mps 711 mmHg 8%
    13:00 +29°C° 0 mm 3 mps 711 mmHg 7%
    14:00 +30°C° 0 mm 3 mps 710 mmHg 7%
    15:00 +29°C° 0 mm 2 mps 710 mmHg 8%
    16:00 +28°C° 0 mm 1 mps 710 mmHg 10%
    17:00 +28°C° 0 mm 1 mps 710 mmHg 11%
    18:00 +26°C° 0 mm 1 mps 710 mmHg 12%
    19:00 +24°C° 0 mm 1 mps 711 mmHg 13%
    20:00 +22°C° 0 mm 1 mps 711 mmHg 14%
    21:00 +22°C° 0 mm 1 mps 711 mmHg 14%
    22:00 +22°C° 0 mm 1 mps 711 mmHg 14%
    23:00 +21°C° 0 mm 1 mps 711 mmHg 14%
    Show more